User: anonymous
Location: Drayton Valley
(53.2170°N, 114.9830°W)
Time: 03:26:11
(UTC-06:00)
Language:

MOZ.5/SAFIR/RUBIN 5/SL-8 - Orbit

View from above orbital plane
View from above orbital plane
View from above satellite
View from above satellite

Ground track
Ground track

The orbit data is extracted from the following two-line orbital elements,

1 28898U 05043G   14211.62513183  .00000246  00000-0  60810-4 0  8805
2 28898 097.8376 038.7992 0018816 257.5643 144.5781 14.59500625466262
Epoch (UTC): 30 July 2014 15:00:11
Eccentricity: 0.0018816
inclination: 97.8376°
perigee height: 681 km
apogee height: 708 km
right ascension of ascending node: 38.7992°
argument of perigee: 257.5643°
revolutions per day: 14.59500625
mean anomaly at epoch: 144.5781°
orbit number at epoch: 46626

The dashed part of the orbit path shows where the satellite is in the earth's shadow,  

DLR